Location: Butler
(32.5575°N, 84.2380°W)
Time: 23:06:02
(UTC+00:00)

N. Korean satellite - Visible Passes

Search period start: 02 December 2021 00:00
Search period end: 12 December 2021 00:00
Orbit: 447 x 495 km, 97.3° (Epoch: 02 December)

Date Brightness Start Highest point End Pass type
(mag) Time Alt. Az. Time Alt. Az. Time Alt. Az.
02 Dec 7.1 10:34:40 10° NNE 10:37:59 53° E 10:41:16 10° S visible
03 Dec 9.1 10:06:53 10° NE 10:09:25 20° E 10:11:56 10° SE visible
03 Dec 8.0 11:40:23 10° NW 11:42:24 15° WNW 11:44:25 10° WSW visible
04 Dec 6.8 11:10:54 10° N 11:14:03 37° WNW 11:17:12 10° SW visible
04 Dec 10.2 23:15:45 10° WSW 23:16:44 11° W 23:17:42 10° WNW visible
05 Dec 6.5 10:42:14 10° NNE 10:45:36 72° E 10:48:58 10° S visible
06 Dec 8.7 10:14:12 10° NE 10:17:02 25° E 10:19:53 10° SSE visible
06 Dec 8.3 11:48:36 10° NW 11:49:56 12° WNW 11:51:17 10° W visible
07 Dec 7.2 11:18:38 10° NNW 11:21:36 29° WNW 11:24:34 10° SW visible
08 Dec 6.2 10:49:45 10° N 10:53:08 84° WNW 10:56:32 10° SSW visible
08 Dec 9.5 22:52:57 10° SSW 22:55:39 21° W 22:58:22 10° NW visible
09 Dec 8.2 10:21:29 10° NNE 10:24:34 32° E 10:27:39 10° SSE visible
10 Dec 9.7 09:54:16 10° ENE 09:55:53 13° E 09:57:31 10° ESE visible
10 Dec 7.5 11:26:19 10° NNW 11:29:02 23° WNW 11:31:46 10° SW visible
11 Dec 6.3 10:57:59 16° N 11:00:34 63° WNW 11:03:56 10° SSW visible
11 Dec 9.7 23:00:52 10° SW 23:03:08 16° W 23:05:24 10° NW visible
